• In Kazakhstan
  • List of Countries
  • For 7 days
  • Water Temperature
  • Satellite Maps
  • Weather Map
  • News
  • Weather Widgets
  • user-avatar
    Login

    Hourly Weather Bournemouth

    Today, 20 January, Sunday

    Time Temperature Precipitation Wind Pressure Humidity
    00:00 +3°C° 0 mm 4 mps 756 mmHg 92%
    01:00 +3°C° 0 mm 4 mps 757 mmHg 92%
    02:00 +3°C° 0 mm 3 mps 757 mmHg 92%
    03:00 +3°C° 0 mm 3 mps 757 mmHg 93%
    04:00 +2°C° 0 mm 3 mps 758 mmHg 93%
    05:00 +2°C° 0 mm 3 mps 758 mmHg 93%
    06:00 0°C° 0 mm 4 mps 759 mmHg 92%
    07:00 0°C° 0 mm 4 mps 759 mmHg 91%
    08:00 0°C° 0 mm 4 mps 760 mmHg 90%
    09:00 +1°C° 0 mm 3 mps 760 mmHg 89%
    10:00 +2°C° 0 mm 3 mps 761 mmHg 84%
    11:00 +3°C° 0 mm 3 mps 762 mmHg 79%
    12:00 +3°C° 0 mm 3 mps 762 mmHg 74%
    13:00 +4°C° 0 mm 3 mps 763 mmHg 73%
    14:00 +4°C° 0 mm 3 mps 763 mmHg 72%
    15:00 +4°C° 0 mm 3 mps 763 mmHg 71%
    16:00 +3°C° 0 mm 3 mps 764 mmHg 75%
    17:00 +3°C° 0 mm 3 mps 764 mmHg 79%
    18:00 +2°C° 0 mm 3 mps 765 mmHg 83%
    19:00 +1°C° 0 mm 3 mps 765 mmHg 85%
    20:00 +1°C° 0 mm 3 mps 766 mmHg 87%
    21:00 +1°C° 0 mm 3 mps 766 mmHg 88%
    22:00 +1°C° 0 mm 3 mps 767 mmHg 89%
    23:00 +1°C° 0 mm 3 mps 767 mmHg 90%

    Tomorrow, 21 January, Monday

    Time Temperature Precipitation Wind Pressure Humidity
    00:00 +1°C° 0 mm 3 mps 767 mmHg 92%
    01:00 +1°C° 0 mm 3 mps 767 mmHg 92%
    02:00 +1°C° 0 mm 3 mps 767 mmHg 92%
    03:00 +1°C° 0 mm 3 mps 767 mmHg 92%
    04:00 +2°C° 0 mm 2 mps 767 mmHg 93%
    05:00 +2°C° 0 mm 2 mps 767 mmHg 93%
    06:00 +2°C° 0 mm 2 mps 767 mmHg 94%
    07:00 +3°C° 0 mm 1 mps 767 mmHg 94%
    08:00 +3°C° 0 mm 1 mps 767 mmHg 94%
    09:00 +2°C° 0 mm 0 mps 767 mmHg 94%
    10:00 +4°C° 0 mm 1 mps 767 mmHg 90%
    11:00 +5°C° 0 mm 1 mps 766 mmHg 86%
    12:00 +6°C° 0 mm 2 mps 766 mmHg 82%
    13:00 +5°C° 0 mm 3 mps 765 mmHg 82%
    14:00 +5°C° 0 mm 4 mps 765 mmHg 82%
    15:00 +5°C° 0 mm 5 mps 764 mmHg 81%
    16:00 +5°C° 0 mm 5 mps 763 mmHg 81%
    17:00 +5°C° 0 mm 5 mps 762 mmHg 82%
    18:00 +5°C° 0 mm 5 mps 762 mmHg 82%
    19:00 +5°C° 0.1 mm 7 mps 761 mmHg 82%
    20:00 +5°C° 0.1 mm 8 mps 759 mmHg 83%
    21:00 +6°C° 0.1 mm 9 mps 758 mmHg 84%
    22:00 +6°C° 0.6 mm 9 mps 757 mmHg 83%
    23:00 +6°C° 0.6 mm 10 mps 756 mmHg 82%

    Day after tomorrow, 22 January, Tuesday

    Time Temperature Precipitation Wind Pressure Humidity
    00:00 +6°C° 0.6 mm 10 mps 754 mmHg 81%
    01:00 +5°C° 1.4 mm 9 mps 754 mmHg 80%
    02:00 +2°C° 1.4 mm 8 mps 753 mmHg 79%
    03:00 +2°C° 1.4 mm 7 mps 752 mmHg 78%
    04:00 0°C° 0 mm 7 mps 752 mmHg 78%
    05:00 +1°C° 0 mm 6 mps 752 mmHg 78%
    06:00 +1°C° 0 mm 6 mps 752 mmHg 78%
    07:00 +1°C° 0 mm 6 mps 752 mmHg 78%
    08:00 +1°C° 0 mm 6 mps 752 mmHg 77%
    09:00 +1°C° 0 mm 6 mps 752 mmHg 77%
    10:00 +2°C° 0 mm 6 mps 752 mmHg 73%
    11:00 +2°C° 0 mm 7 mps 751 mmHg 70%
    12:00 +2°C° 0 mm 8 mps 751 mmHg 66%
    13:00 +2°C° 0.1 mm 7 mps 751 mmHg 66%
    14:00 +2°C° 0.1 mm 7 mps 751 mmHg 66%
    15:00 +2°C° 0.1 mm 7 mps 751 mmHg 67%
    16:00 0°C° 0 mm 7 mps 751 mmHg 69%
    17:00 -1°C° 0 mm 7 mps 751 mmHg 71%
    18:00 -2°C° 0 mm 7 mps 751 mmHg 73%
    19:00 -2°C° 0 mm 7 mps 752 mmHg 73%
    20:00 -2°C° 0 mm 7 mps 752 mmHg 74%
    21:00 -2°C° 0 mm 7 mps 752 mmHg 74%
    22:00 -2°C° 0 mm 6 mps 752 mmHg 75%
    23:00 -2°C° 0 mm 6 mps 752 mmHg 75%

    23 January, Wednesday

    Time Temperature Precipitation Wind Pressure Humidity
    00:00 -2°C° 0 mm 6 mps 752 mmHg 76%
    01:00 -2°C° 0 mm 6 mps 752 mmHg 76%
    02:00 -2°C° 0 mm 5 mps 752 mmHg 77%
    03:00 -2°C° 0 mm 5 mps 752 mmHg 78%
    04:00 -2°C° 0 mm 5 mps 752 mmHg 78%
    05:00 -2°C° 0 mm 5 mps 753 mmHg 79%
    06:00 -2°C° 0 mm 5 mps 753 mmHg 79%
    07:00 -1°C° 0 mm 5 mps 753 mmHg 79%
    08:00 -1°C° 0 mm 4 mps 754 mmHg 78%
    09:00 -1°C° 0 mm 4 mps 754 mmHg 78%
    10:00 0°C° 0 mm 4 mps 754 mmHg 73%
    11:00 +1°C° 0 mm 4 mps 755 mmHg 69%
    12:00 +4°C° 0 mm 4 mps 755 mmHg 65%
    13:00 +4°C° 0 mm 4 mps 755 mmHg 66%
    14:00 +4°C° 0 mm 4 mps 755 mmHg 67%
    15:00 +4°C° 0 mm 4 mps 755 mmHg 67%
    16:00 +3°C° 0 mm 3 mps 756 mmHg 72%
    17:00 +2°C° 0 mm 3 mps 756 mmHg 76%
    18:00 +2°C° 0 mm 2 mps 756 mmHg 80%
    19:00 +2°C° 0 mm 2 mps 756 mmHg 79%
    20:00 +3°C° 0 mm 2 mps 757 mmHg 77%
    21:00 +3°C° 0 mm 2 mps 757 mmHg 75%
    22:00 +3°C° 0 mm 2 mps 757 mmHg 77%
    23:00 +4°C° 0 mm 2 mps 756 mmHg 78%

    24 January, Thursday

    Time Temperature Precipitation Wind Pressure Humidity
    00:00 +4°C° 0 mm 2 mps 756 mmHg 79%
    01:00 +3°C° 0.2 mm 3 mps 756 mmHg 82%
    02:00 +4°C° 0.2 mm 3 mps 756 mmHg 86%
    03:00 +4°C° 0.2 mm 3 mps 755 mmHg 90%
    04:00 +4°C° 0.6 mm 3 mps 755 mmHg 91%
    05:00 +5°C° 0.6 mm 3 mps 755 mmHg 93%
    06:00 +5°C° 0.6 mm 3 mps 754 mmHg 94%
    07:00 +5°C° 0.1 mm 4 mps 755 mmHg 94%
    08:00 +5°C° 0.1 mm 4 mps 755 mmHg 94%
    09:00 +5°C° 0.1 mm 5 mps 755 mmHg 94%
    10:00 +5°C° 0 mm 5 mps 755 mmHg 92%
    11:00 +6°C° 0 mm 5 mps 756 mmHg 90%
    12:00 +7°C° 0 mm 5 mps 756 mmHg 87%
    13:00 +6°C° 0 mm 5 mps 756 mmHg 87%
    14:00 +6°C° 0 mm 5 mps 756 mmHg 86%
    15:00 +6°C° 0 mm 5 mps 757 mmHg 86%
    16:00 +5°C° 0 mm 4 mps 757 mmHg 88%
    17:00 +4°C° 0 mm 4 mps 758 mmHg 89%
    18:00 +3°C° 0 mm 4 mps 759 mmHg 91%
    19:00 +3°C° 0 mm 4 mps 759 mmHg 91%
    20:00 +2°C° 0 mm 3 mps 760 mmHg 91%
    21:00 +2°C° 0 mm 3 mps 761 mmHg 91%
    22:00 +2°C° 0 mm 3 mps 761 mmHg 91%
    23:00 +1°C° 0 mm 3 mps 762 mmHg 92%

    25 January, Friday

    Time Temperature Precipitation Wind Pressure Humidity
    00:00 +1°C° 0 mm 3 mps 762 mmHg 93%
    01:00 +1°C° 0 mm 3 mps 762 mmHg 93%
    02:00 0°C° 0 mm 3 mps 763 mmHg 92%
    03:00 +1°C° 0 mm 2 mps 763 mmHg 91%
    04:00 +1°C° 0 mm 2 mps 763 mmHg 90%
    05:00 +2°C° 0 mm 2 mps 764 mmHg 89%
    06:00 +2°C° 0 mm 2 mps 764 mmHg 87%
    07:00 +3°C° 0 mm 1 mps 764 mmHg 87%
    08:00 +4°C° 0 mm 1 mps 765 mmHg 86%
    09:00 +4°C° 0 mm 1 mps 765 mmHg 85%
    10:00 +4°C° 0 mm 2 mps 766 mmHg 83%
    11:00 +5°C° 0 mm 2 mps 766 mmHg 81%
    12:00 +6°C° 0 mm 2 mps 766 mmHg 80%
    13:00 +5°C° 0 mm 3 mps 766 mmHg 80%
    14:00 +7°C° 0 mm 3 mps 766 mmHg 80%
    15:00 +7°C° 0 mm 3 mps 765 mmHg 81%
    16:00 +6°C° 0 mm 4 mps 765 mmHg 84%
    17:00 +6°C° 0 mm 4 mps 765 mmHg 87%
    18:00 +6°C° 0 mm 4 mps 765 mmHg 90%
    19:00 +6°C° 0.1 mm 4 mps 765 mmHg 92%
    20:00 +7°C° 0.1 mm 4 mps 765 mmHg 94%
    21:00 +7°C° 0.1 mm 4 mps 765 mmHg 95%
    22:00 +8°C° 0.1 mm 3 mps 765 mmHg 95%
    23:00 +8°C° 0.1 mm 3 mps 765 mmHg 94%
    Show more